Regional Weather Roundup
Issued by NWS Northern Indiana

Home | Current Version | Previous Version | Text Only | Print | Product List | Glossary Off
Versions: 1 2 3 4 5 6 7 8 9 10 11 12 13 14 15 16 17 18 19 20 21 22 23 24 25 26 27 28 29 30 31 32 33 34 35 36 37 38 39 40 41 42 43 44 45 46 47 48 49 50

000
ASUS43 KIWX 082210
RWRIWX

KIWX WEATHER ROUNDUP
NATIONAL WEATHER SERVICE NORTHERN INDIANA
500 PM EST THU DEC 08 2016

NOTE: "FAIR" INDICATES FEW OR NO CLOUDS BELOW 12,000 FEET WITH NO
SIGNIFICANT WEATHER AND/OR OBSTRUCTIONS TO VISIBILITY.

* THESE STATIONS ARE NOT UNDER NWS QUALITY CONTROL. THEY ALSO MAY NOT
  REPORT WEATHER SUCH AS PRECIPITATION OR FOG.

INZ001>027-082300-
NORTHERN INDIANA

CITY           SKY/WX    TMP DP  RH WIND       PRES   REMARKS
GARY*          CLOUDY    23  14  68 W26       30.36R WCI   6
VALPARAISO     CLOUDY    20  12  71 W15       30.34R WCI   6
MICHIGAN CITY* FLURRIES  23  18  80 W8G22     30.33R WCI  14
LAPORTE*       LGT SNOW  19  14  79 W10G18    30.33R WCI   8
KNOX*          CLOUDY    21  -4  33 W15       30.35R WCI   8
SOUTH BEND     LGT SNOW  19  16  88 SW13      30.30R FOG     WCI   6
ELKHART*       LGT SNOW  21  16  79 W16       30.28R WCI   7
GOSHEN         FLURRIES  20  12  71 W16G25    30.29R WCI   6
MONTICELLO*    FLURRIES  20  10  65 W15G23    30.37R WCI   7
LOGANSPORT*    FLURRIES  21  14  73 W10G23    30.37R WCI  10
ROCHESTER*     LGT SNOW  23  19  86 W12       30.35R WCI  12
WARSAW*        FLURRIES  19  12  73 W16       30.32R WCI   5
ANGOLA*        CLOUDY    19  16  86 W13       30.24R WCI   7
FORT WAYNE     FLURRIES  21  13  71 W20       30.31R WCI   6
HUNTINGTON*    FLURRIES  20  13  74 W9G16     30.33R WCI   9
PERU/GRISSOM   FLURRIES  20  12  71 W20       30.33R WCI   5
MARION*        FLURRIES  20  14  77 W20G26    30.35R WCI   5

$$
INZ028>050-082300-
CENTRAL INDIANA

CITY           SKY/WX    TMP DP  RH WIND       PRES   REMARKS
LAFAYETTE      CLOUDY    20  13  74 W15G25    30.39R WCI   6
KOKOMO*        FLURRIES  20  14  77 W17       30.35R WCI   5
MUNCIE*        CLOUDY    23  14  68 W16G24    30.33R WCI  10
INDIANAPOLIS   FLURRIES  23  13  65 W15       30.38R WCI  10

$$
MIZ043>046-050>051-056>058-064>065-071>073-077>080-082300-
SOUTHWEST LOWER MICHIGAN

CITY           SKY/WX    TMP DP  RH WIND       PRES   REMARKS
BATTLE CREEK   LGT SNOW  25  21  85 W12       30.21R FOG     WCI  14
BENTON HARBOR  LGT SNOW  27  19  72 W20G31    30.27R WCI  13
COLDWATER*     LGT SNOW  22  18  87 SW16      30.23R WCI   8
HILLSDALE*     LGT SNOW  21  18  86 W13       30.19R WCI   9
HOLLAND        LGT SNOW  29  23  78 W15G24    30.21R WCI  18
GRAND RAPIDS   LGT SNOW  27  22  81 W14       30.18R WCI  16
KALAMAZOO      LGT SNOW  25  19  78 W9        30.23R WCI  15
STURGIS*       FLURRIES  20  16  84 W10G20    30.24R WCI   9
THREE RIVERS*  LGT SNOW  23  19  87 W9        30.26R WCI  13

$$
OHZ001>008-015>018-024>025-082300-
NORTHWEST OHIO

CITY           SKY/WX    TMP DP  RH WIND       PRES   REMARKS
WAUSEON*       FLURRIES  23  18  80 W18G24    30.24R WCI   9
DEFIANCE       FLURRIES  24  14  65 W9G20     30.27R WCI  14
FINDLAY        CLOUDY    24  12  60 W20G26    30.26R WCI  10
TOLEDO EXPRESS FLURRIES  23  17  78 W20       30.23R WCI   8
TOLEDO METCALF LGT SNOW  24  17  74 W18G28    30.23R WCI  10
LIMA           FLURRIES  22  15  75 W16G24    30.27R WCI   8

$$
AND FOR LAKE MICHIGAN COASTAL AND OPEN LAKE BUOY OBSERVATIONS

STATION/POSITION TEMP    WIND        PRES    VSBY  WAVE
                 AIR SEA DIR/SP/G                  HT/PER
                 (F)     (DEG/KT/KT) (MB)    (MI)  (FT/S)
CALUMET HARBOR    21     250/ 11/ 18 1026.8R
BURNS HARBOR      23     280/ 19     1027.1R
SAINT JOSEPH      28     280/ 20/ 25 1026.1

$$
&&




USA.gov is the U.S. government's official web portal to all federal, state and local government web resources and services.